This demonstration page uses our WeatherBlox Daily Observations layout. Learn more.

Left ArrowRight Arrow

39.51506, -84.39828

Hourly Observations for December 12, 2018

Temp ( °F °C ) Dew Point ( °F °C ) Humidity (%) Winds ( mph kmh ) Pressure ( in mb ) Visibility ( mi km ) Precip ( " mm )
12:15 am 00:15 Clear 27 -2.8 24 -4.2 90 90 N N/A 30.15 1021 10 16 N/A
12:35 am 00:35 Clear 26 -3.1 24 -4.3 92 92 N N/A 30.15 1021 10 16 N/A
12:55 am 00:55 Clear 27 -3 24 -4.2 92 92 N N/A 30.15 1021 10 16 N/A
1:15 am 01:15 Clear 26 -3.2 24 -4.6 90 90 N N/A 30.15 1021 10 16 N/A
1:35 am 01:35 Clear 25 -4 22 -5.3 91 91 N N/A 30.15 1021 10 16 N/A
1:55 am 01:55 Clear 26 -3.6 23 -4.8 92 92 N N/A 30.15 1021 10 16 N/A
2:15 am 02:15 Clear 26 -3.4 24 -4.6 92 92 N N/A 30.15 1021 10 16 N/A
2:35 am 02:35 Clear 26 -3.3 24 -4.4 92 92 N N/A 30.15 1021 10 16 N/A
2:55 am 02:55 Clear 26 -3.4 23 -4.9 90 90 N N/A 30.15 1021 10 16 N/A
3:15 am 03:15 Clear 27 -3 24 -4.4 90 90 N N/A 30.12 1020 10 16 N/A
3:35 am 03:35 Clear 27 -2.8 24 -4.2 90 90 N N/A 30.12 1020 10 16 N/A
3:55 am 03:55 Clear 26 -3.2 24 -4.5 91 91 N N/A 30.12 1020 10 16 N/A
4:15 am 04:15 Clear 26 -3.2 24 -4.4 92 92 N N/A 30.12 1020 10 16 N/A
4:35 am 04:35 Clear 27 -2.9 24 -4.3 90 90 N N/A 30.12 1020 10 16 N/A
4:55 am 04:55 Clear 27 -2.9 24 -4.3 90 90 N N/A 30.12 1020 10 16 N/A
5:15 am 05:15 Clear 27 -2.8 25 -4.1 91 91 N N/A 30.12 1020 10 16 N/A
5:35 am 05:35 Clear 28 -2.5 25 -3.8 91 91 N N/A 30.09 1019 10 16 N/A
5:55 am 05:55 Clear 28 -2.2 25 -3.7 90 90 N N/A 30.09 1019 10 16 N/A
6:15 am 06:15 Clear 29 -1.9 24 -4.2 84 84 N N/A 30.09 1019 10 16 N/A
6:35 am 06:35 Clear 30 -0.9 24 -4.3 78 78 S 5 7 30.09 1019 10 16 N/A
6:55 am 06:55 Clear 32 0.1 24 -4.3 73 73 SSE 5 7 30.09 1019 10 16 N/A
7:15 am 07:15 Clear 32 0.2 24 -4.2 73 73 SSE 5 7 30.09 1019 10 16 N/A
7:35 am 07:35 Clear 32 0.1 25 -4.1 74 74 S 6 9 30.09 1019 10 16 N/A
7:55 am 07:55 Sunny 33 0.6 24 -4.3 70 70 SSE 7 11 30.06 1018 10 16 N/A
8:15 am 08:15 Partly Cloudy 33 0.6 25 -3.9 72 72 SSE 6 9 30.06 1018 10 16 N/A
8:35 am 08:35 Sunny 34 1.2 25 -4.1 68 68 S 5 7 30.06 1018 10 16 N/A
8:55 am 08:55 Sunny 35 1.4 25 -3.9 68 68 S 3 6 30.06 1018 10 16 N/A
9:15 am 09:15 Partly Cloudy 35 1.8 26 -3.4 69 69 S 9 15 30.06 1018 10 16 N/A
9:35 am 09:35 Sunny 36 2.3 25 -3.7 65 65 S 12 19 30.06 1018 10 16 N/A
9:55 am 09:55 Sunny 37 2.7 26 -3.4 65 65 S 6 9 30.06 1018 10 16 N/A
10:15 am 10:15 Sunny 38 3.2 26 -3.3 63 63 S 12 19 30.06 1018 10 16 N/A
10:35 am 10:35 Sunny 39 3.7 26 -3.4 60 60 S 12 19 30.00 1016 10 16 N/A
10:55 am 10:55 Sunny 40 4.4 26 -3.4 57 57 S 13 20 30.00 1016 10 16 N/A
11:15 am 11:15 Sunny 41 4.8 26 -3.4 56 56 S 15 24 29.97 1015 10 16 N/A
11:35 am 11:35 Sunny 43 5.9 26 -3.1 53 53 S 12 19 29.97 1015 10 16 N/A
11:55 am 11:55 Sunny 44 6.6 27 -2.9 51 51 SSW 14 22 29.97 1015 10 16 N/A
12:15 pm 12:15 Sunny 46 7.6 28 -2.3 50 50 SSW 12 19 29.94 1014 10 16 N/A
12:35 pm 12:35 Sunny 45 7.4 28 -2.3 51 51 SSW 16 26 29.94 1014 10 16 N/A
12:55 pm 12:55 Cloudy 46 7.8 29 -1.9 51 51 SSW 14 22 29.91 1013 10 16 N/A
1:15 pm 13:15 Cloudy 46 7.9 29 -1.8 51 51 SSW 12 19 29.91 1013 10 16 N/A
1:35 pm 13:35 Cloudy 46 7.7 29 -1.6 52 52 SSW 14 22 29.91 1013 10 16 N/A
1:55 pm 13:55 Cloudy 47 8.1 29 -1.5 51 51 SSW 12 19 29.91 1013 10 16 N/A
2:15 pm 14:15 Cloudy 47 8.2 29 -1.5 51 51 SSW 13 20 29.91 1013 10 16 N/A
2:35 pm 14:35 Cloudy 46 8 29 -1.6 51 51 S 12 19 29.91 1013 10 16 N/A
2:55 pm 14:55 Cloudy 47 8.4 30 -1.1 52 52 SSW 10 17 29.91 1013 10 16 N/A
3:15 pm 15:15 Cloudy 47 8.4 30 -1.1 52 52 SSW 12 19 29.91 1013 10 16 N/A
3:35 pm 15:35 Cloudy 48 8.8 30 -1.1 50 50 SSW 9 15 29.91 1013 10 16 N/A
3:55 pm 15:55 Partly Cloudy 47 8.6 30 -1.3 50 50 S 8 13 29.91 1013 10 16 N/A
4:15 pm 16:15 Sunny 47 8.5 30 -1.1 51 51 S 8 13 29.91 1013 10 16 N/A
4:35 pm 16:35 Sunny 46 8 30 -1.2 53 53 S 7 11 29.91 1013 10 16 N/A
4:55 pm 16:55 Sunny 45 7.1 30 -1.2 56 56 S 7 11 29.91 1013 10 16 N/A
5:15 pm 17:15 Clear 43 6.2 30 -1.3 59 59 S 7 11 29.91 1013 10 16 N/A
5:35 pm 17:35 Clear 43 6.3 30 -1.2 59 59 S 3 6 29.94 1014 10 16 N/A
5:55 pm 17:55 Clear 41 5 30 -1.2 65 65 SSW 5 7 29.94 1014 10 16 N/A
6:15 pm 18:15 Clear 40 4.7 30 -1.2 66 66 SSW 5 7 29.94 1014 10 16 N/A
6:35 pm 18:35 Partly Cloudy 39 3.8 29 -1.4 69 69 SW 3 6 29.94 1014 10 16 N/A
6:55 pm 18:55 Mostly Cloudy 38 3.6 30 -1.3 71 71 SSW 3 6 29.94 1014 10 16 N/A
7:15 pm 19:15 Clear 33 0.7 30 -1.2 87 87 WSW 3 6 29.97 1015 10 16 N/A
7:35 pm 19:35 Partly Cloudy 35 1.9 29 -1.4 79 79 SSW 3 6 29.97 1015 10 16 N/A
7:55 pm 19:55 Mostly Cloudy 32 -0.1 28 -2.3 85 85 N N/A 30.00 1016 10 16 N/A
8:15 pm 20:15 Clear 32 -0.2 27 -2.6 84 84 SSW 6 9 30.00 1016 10 16 N/A
8:35 pm 20:35 Clear 34 0.9 29 -1.5 84 84 SW 3 6 30.00 1016 10 16 N/A
8:55 pm 20:55 Clear 38 3.2 31 -0.7 76 76 N N/A 30.00 1016 10 16 N/A
9:15 pm 21:15 Clear 33 0.3 28 -2 85 85 N N/A 30.00 1016 10 16 N/A
9:35 pm 21:35 Partly Cloudy 31 -0.8 28 -2.3 90 90 N N/A 30.00 1016 10 16 N/A
9:55 pm 21:55 Partly Cloudy 31 -0.5 28 -2 90 90 N N/A 30.03 1017 10 16 N/A
10:15 pm 22:15 Mostly Cloudy 31 -0.5 29 -1.7 92 92 N N/A 30.03 1017 10 16 N/A
10:35 pm 22:35 Partly Cloudy 32 -0.2 29 -1.6 90 90 N N/A 30.03 1017 10 16 N/A
10:55 pm 22:55 Partly Cloudy 30 -1 28 -2.2 92 92 N N/A 30.03 1017 10 16 N/A
11:15 pm 23:15 Cloudy 31 -0.4 29 -1.5 92 92 N N/A 30.03 1017 10 16 N/A
11:35 pm 23:35 Partly Cloudy 31 -0.8 29 -1.8 93 93 N N/A 30.03 1017 10 16 N/A
11:55 pm 23:55 Partly Cloudy 29 -1.6 28 -2.4 94 94 N N/A 30.03 1017 10 16 N/A

Powered by AerisWeather